Miscellaneous Local Product
Issued by NWS Hastings, NE

Home | Current Version | Previous Version | Graphics & Text | Print | Product List | Glossary On
Versions: 1 2 3 4 5 6 7 8 9 10 11 12 13 14 15 16 17 18 19 20 21 22 23 24 25 26 27 28 29 30 31 32 33 34 35 36 37 38 39 40 41 42 43 44 45 46 47 48 49 50
000
AXUS43 KGID 290902
MISGRI

GID CWA HOURLY WEATHER ROUNDUP
NATIONAL WEATHER SERVICE HASTINGS NE
400 AM CDT WED JUL 29 2015

NOTE: "FAIR" INDICATES FEW OR NO CLOUDS BELOW 12,000 FEET WITH NO
SIGNIFICANT WEATHER AND/OR OBSTRUCTIONS TO VISIBILITY.

...SOUTH CENTRAL NEBRASKA...

CITY           SKY/WX    TMP DP  RH WIND       PRES   REMARKS
GRAND ISLAND   PTCLDY    57  54  89 NW6       30.15R
HASTINGS       PTCLDY    62  56  80 CALM      30.15R
KEARNEY        PTCLDY    61  54  77 NW5       30.16R
ORD            CLEAR     55  52  89 CALM      30.17R
YORK           CLEAR     59  57  94 CALM      30.12S
AURORA         CLEAR     57  57 100 CALM      30.13S
LEXINGTON      CLEAR     56  52  86 W3        30.18R
HOLDREGE       PTCLDY    58  55  88 N3        30.16S
HEBRON         CLEAR     63  59  88 CALM      30.10S

...NEBRASKA PANHANDLE...

CITY           SKY/WX    TMP DP  RH WIND       PRES   REMARKS
CHADRON        CLEAR     47  42  83 SW6       30.24S
ALLIANCE       CLEAR     43  40  89 SW6       30.25R
SCOTTSBLUFF    CLEAR     52  46  80 N3        30.27R
SIDNEY         CLEAR     50  41  71 CALM      30.27S

...WESTERN AND NORTH CENTRAL NEBRASKA...

CITY           SKY/WX    TMP DP  RH WIND       PRES   REMARKS
VALENTINE      CLEAR     50  45  83 W8        30.19R
AINSWORTH      CLEAR     55  48  80 W6        30.19R
ONEILL         CLEAR     54  53  95 W3        30.17R
BROKEN BOW     CLEAR     56  50  80 CALM      30.20R
IMPERIAL       CLEAR     57  48  72 NW5       30.22R
NORTH PLATTE   PTCLDY    58  49  72 NE6       30.21R
MCCOOK         PTCLDY    59  50  72 CALM      30.18R

...EASTERN NEBRASKA...

CITY           SKY/WX    TMP DP  RH WIND       PRES   REMARKS
NORFOLK        CLEAR     55  53  93 W5        30.13R
SO SIOUX CITY  CLEAR     60  57  89 W3        30.10R
TEKAMAH        PTCLDY    61  59  93 CALM      30.08S
COLUMBUS       CLEAR     54  48  82 CALM      30.13R
ALBION         CLEAR     54  51  92 N5        30.15R
OMAHA EPPLEY   MOCLDY    65  62  90 N7        30.08R
OFFUTT AFB     MOCLDY    64  60  86 NW5       30.06S
MILLARD        MOCLDY    65  63  92 NW3       30.08R
LINCOLN        PTCLDY    61  60  97 N7        30.09F
NEBRASKA CITY  CLOUDY    68  58  68 NE5       30.06F
BEATRICE       MOCLDY    64  63  96 CALM      30.08S
FALLS CITY     CLOUDY    71  70  96 N5        30.05R

...NORTHERN KANSAS...

CITY           SKY/WX    TMP DP  RH WIND       PRES   REMARKS
GOODLAND       CLOUDY    60  51  72 S3        30.23R
HILL CITY      MOCLDY    63  58  83 NE9       30.15R
NORTON         SUNNY     59  54  82 NE5       30.17S
PHILLIPSBURG   CLEAR     68  59  73 N6        30.15R
SMITH CENTER   CLEAR     63  57  82 N6        30.14R
HAYS           CLOUDY    72  55  56 NE9       30.13R
RUSSELL        CLOUDY    70  60  70 E13       30.11R
CONCORDIA      MOCLDY    66  61  84 NE5       30.09R
SALINA         TSTM      67  61  81 N9        30.09R
TOPEKA         TSTM      73  72  96 NE10      30.06R FOG



USA.gov is the U.S. government's official web portal to all federal, state and local government web resources and services.